User: anonymous   Login
Location: Caltech
(34.1382°N, 118.1253°W)
Time: 09:02:14
(UTC-07:00)
Language:

Cosmos 1484 Rocket - Orbit

View from above orbital plane
View from above orbital plane
View from above satellite
View from above satellite

Ground track
Ground track

The orbit data is extracted from the following two-line orbital elements,

1 14208U 83075B   15086.06017026  .00003218  00000-0  20595-3 0  9998
2 14208 097.3929 117.6565 0042581 054.2023 306.3152 15.08521420724824
Epoch (UTC): 27 March 2015 01:26:38
Eccentricity: 0.0042581
inclination: 97.3929°
perigee height: 511 km
apogee height: 570 km
right ascension of ascending node: 117.6565°
argument of perigee: 54.2023°
revolutions per day: 15.08521420
mean anomaly at epoch: 306.3152°
orbit number at epoch: 72482

The dashed part of the orbit path shows where the satellite is in the earth's shadow,  

DLR